DateTimeUTC,F1_A11,F1_S11,BsB_S11,BsG_S11,BsR_S11,BbsB_S11,BbsG_S11,BbsR_S11,BaB_A11,BaG_A11,BaR_A11,Tu_S11,T_S11,Uu_S11,U_S11,P_S11,T1_A11
2021-02-19T15:00:00Z,00000200,21000000,,,,,,,0000.11,-000.43,-000.19,17.7,24.6,00.3,00.2,0629.0,31.1
2021-02-19T15:01:00Z,00000200,21000000,,,,,,,-000.10,0000.38,0000.00,17.7,24.6,00.3,00.2,0629.0,31.1
2021-02-19T15:02:00Z,00000200,21000000,,,,,,,0000.11,0000.42,0000.18,17.7,24.6,00.3,00.2,0629.0,31.1
2021-02-19T15:03:00Z,00000200,61000000,,,,,,,-000.12,-000.52,0000.29,17.7,24.6,00.3,00.2,0629.0,31.1
2021-02-19T15:04:00Z,00000200,41000000,0000.01,0000.20,0000.01,-000.20,0000.04,-000.12,0000.18,0000.54,-000.11,17.9,24.6,00.7,00.5,0629.9,31.1
2021-02-19T15:05:00Z,00000200,01000000,0000.23,-000.07,-000.00,0000.46,-000.02,-000.06,0000.18,-000.15,0000.18,17.9,24.6,00.6,00.4,0630.0,31.1
2021-02-19T15:06:00Z,00000200,01000000,-000.21,-000.08,-000.01,-000.33,0000.04,0000.29,-000.09,0000.29,-000.02,17.9,24.6,00.7,00.4,0630.0,31.1
2021-02-19T15:07:00Z,00000200,01000000,0000.49,0000.05,0000.02,0000.51,-000.11,0000.21,-000.04,-000.07,0000.02,17.9,24.6,00.7,00.5,0630.1,31.1
2021-02-19T15:08:00Z,00000200,01000000,0000.28,0000.15,0000.04,-000.21,-000.04,0000.05,0000.17,0000.01,-000.05,18.0,24.6,00.6,00.4,0630.0,31.1
2021-02-19T15:09:00Z,00000200,01000000,-000.21,0000.03,0000.27,0000.28,0000.04,-000.10,-000.17,-000.19,0000.04,18.0,24.6,00.7,00.4,0630.1,31.1
2021-02-19T15:10:00Z,00000200,01000000,-000.23,0000.13,0000.14,-000.24,-000.01,0000.25,0000.39,0000.11,-000.12,18.0,24.6,00.6,00.4,0630.1,31.1
2021-02-19T15:11:00Z,00000200,01000000,0000.32,-000.19,0000.34,-000.16,0000.07,0000.16,-000.33,-000.28,-000.15,18.0,24.6,00.6,00.4,0630.1,31.1
2021-02-19T15:12:00Z,00000200,01000000,0000.40,0000.05,0000.17,-000.24,-000.03,0000.01,-000.01,0000.00,0000.02,18.0,24.6,00.6,00.4,0630.1,31.1
2021-02-19T15:13:00Z,00000200,01000000,0000.59,-000.07,0000.31,-000.22,0000.23,0000.30,-000.06,0000.31,0000.07,18.0,24.6,00.6,00.4,0630.1,31.1
2021-02-19T15:14:00Z,00000200,01000000,-000.29,0000.12,0000.45,-000.19,0000.14,0000.13,0000.14,-000.09,0000.20,18.0,24.6,00.5,00.4,0630.1,31.1
2021-02-19T15:15:00Z,00000200,01000000,0000.38,0000.11,0000.20,-000.30,-000.03,-000.10,0000.09,-000.07,0000.13,18.0,24.6,00.7,00.5,0630.1,31.1
2021-02-19T15:16:00Z,00000200,01000000,-000.07,0000.01,-000.22,-000.06,-000.15,0000.14,0000.13,0000.34,0000.32,18.0,24.6,00.6,00.4,0630.1,31.1
2021-02-19T15:17:00Z,00000200,01000000,-000.34,0000.03,-000.07,-000.08,-000.16,-000.17,0000.20,0000.13,-000.04,18.0,24.6,00.5,00.3,0630.1,31.1
2021-02-19T15:18:00Z,00000200,01000000,0000.18,0000.27,0000.00,-000.03,0000.15,0000.01,0000.08,0000.27,0000.05,18.1,24.6,00.6,00.4,0630.1,31.1
2021-02-19T15:19:00Z,00000200,01000000,0000.02,-000.04,0000.08,-000.09,0000.11,0000.03,-000.12,-000.77,-000.55,18.2,24.7,00.5,00.4,0630.1,31.1
2021-02-19T15:20:00Z,00000200,01000000,-000.03,-000.06,0000.03,-000.36,0000.01,0000.19,0000.14,0000.34,0000.61,18.2,24.7,00.5,00.3,0630.2,31.1
2021-02-19T15:21:00Z,00000200,01000000,-000.28,0000.02,0000.05,-000.07,0000.07,0000.07,-000.21,-000.05,-000.17,18.2,24.7,00.5,00.3,0630.2,31.1
2021-02-19T15:22:00Z,00000200,01000000,0000.81,0000.17,0000.06,-000.18,0000.19,0000.10,-000.14,-000.02,-000.23,18.2,24.8,00.5,00.3,0630.2,31.1
2021-02-19T15:23:00Z,00000200,01000000,0000.06,-000.12,0000.14,0000.10,-000.03,-000.05,0000.21,-000.08,0000.18,18.2,24.7,00.6,00.4,0630.2,31.1
2021-02-19T15:24:00Z,00000200,01000000,0000.31,0000.23,-000.00,0000.18,-000.04,0000.08,0000.12,0000.36,0000.19,18.2,24.8,00.6,00.4,0630.2,31.1
2021-02-19T15:25:00Z,00000200,01000000,0000.24,0000.11,0000.19,-000.47,-000.10,0000.34,-000.54,-000.51,-000.66,18.2,24.8,00.6,00.4,0630.3,31.1
2021-02-19T15:26:00Z,00000200,01000000,0000.75,0000.02,-000.29,0000.46,-000.09,0000.05,0000.41,0000.40,0000.38,18.2,24.8,00.4,00.3,0630.3,31.1
2021-02-19T15:27:00Z,00000200,01000000,0000.12,0000.24,0000.08,-000.13,-000.10,-000.19,-000.28,-000.22,0000.38,18.2,24.8,00.5,00.3,0630.4,31.1
2021-02-19T15:28:00Z,00000200,01000000,0000.03,-000.24,0000.03,0000.07,-000.01,-000.04,0000.37,-000.26,-000.40,18.2,24.8,00.3,00.2,0630.4,31.1
2021-02-19T15:29:00Z,00000200,01000000,0000.31,0000.27,-000.01,-000.06,0000.27,0000.04,-000.27,0000.12,-000.14,18.2,24.8,00.5,00.3,0630.4,31.1
2021-02-19T15:30:00Z,00000200,01000000,-000.09,-000.04,0000.43,-000.08,0000.22,0000.27,-000.19,0000.04,0000.35,18.2,24.8,00.4,00.3,0630.4,31.1
2021-02-19T15:31:00Z,00000200,01000000,-000.25,0000.13,0000.16,0000.11,-000.10,0000.08,0000.22,0000.24,0000.02,18.2,24.8,00.4,00.3,0630.4,31.1
2021-02-19T15:32:00Z,00000200,01000000,0000.07,-000.15,0000.16,-000.29,0000.05,0000.01,0000.23,0000.11,-000.13,18.2,24.8,00.3,00.2,0630.5,31.1
2021-02-19T15:33:00Z,00000200,01000000,0000.30,0000.14,0000.23,-000.07,0000.18,0000.23,-000.17,-000.14,0000.14,18.1,24.7,00.3,00.2,0630.4,31.1
2021-02-19T15:34:00Z,00000200,01000000,0000.17,-000.09,0000.12,0000.03,0000.16,0000.33,0000.08,0000.12,-000.02,18.1,24.7,00.4,00.3,0630.5,31.1
2021-02-19T15:35:00Z,00000200,01000000,-000.06,0000.10,0000.07,-000.42,0000.25,0000.08,-000.12,-000.30,0000.22,18.1,24.7,00.3,00.2,0630.5,31.1
2021-02-19T15:36:00Z,00000200,01000000,0000.13,0000.00,0000.20,-000.20,-000.01,-000.11,-000.23,-000.37,-000.12,18.1,24.7,00.4,00.3,0630.5,31.1
2021-02-19T15:37:00Z,00000200,01000000,0000.30,0000.11,-000.24,-000.31,-000.08,0000.18,0000.16,0000.34,0000.05,18.1,24.7,00.3,00.2,0630.5,31.1
2021-02-19T15:38:00Z,00000200,01000000,0000.00,0000.04,-000.01,-000.20,-000.05,0000.01,0000.26,0000.63,-000.11,18.1,24.7,00.3,00.2,0630.5,31.1
2021-02-19T15:39:00Z,00000200,01000000,0000.27,0000.11,0000.05,-000.54,-000.08,0000.05,0000.17,-000.31,0000.31,18.1,24.7,00.2,00.2,0630.6,31.1
2021-02-19T15:40:00Z,00000200,01000000,0000.69,-000.18,0000.08,-000.48,0000.21,0000.09,-000.16,0000.27,0000.21,18.1,24.7,00.2,00.2,0630.6,31.1
2021-02-19T15:41:00Z,00000200,01000000,0000.52,0000.20,0000.02,-000.03,0000.14,-000.16,0000.11,-000.02,-000.20,18.1,24.8,00.3,00.2,0630.6,31.1
2021-02-19T15:42:00Z,00000200,01000000,-000.09,0000.02,0000.15,0000.02,0000.09,0000.14,-000.06,-000.27,0000.14,18.1,24.8,00.2,00.1,0630.7,31.1
2021-02-19T15:43:00Z,00000200,01000000,0000.27,0000.04,0000.28,-000.93,-000.10,-000.05,0000.13,0000.12,-000.17,18.1,24.8,00.2,00.1,0630.7,31.1
2021-02-19T15:44:00Z,00000200,01000000,0000.03,0000.09,0000.20,-000.17,0000.01,0000.19,0000.10,0000.05,-000.03,18.1,24.8,00.2,00.1,0630.7,31.1
2021-02-19T15:45:00Z,00000200,01000000,0000.32,0000.14,-000.02,-000.24,0000.34,0000.07,-000.24,0000.27,0000.23,18.1,24.8,00.2,00.1,0630.7,31.1
2021-02-19T15:46:00Z,00000200,01000000,0000.50,0000.31,0000.17,0000.26,-000.10,0000.11,-000.16,-000.66,-000.15,18.1,24.8,00.2,00.1,0630.8,31.1
2021-02-19T15:47:00Z,00000200,01000000,0000.11,-000.05,0000.01,-000.26,0000.07,-000.06,-000.15,-000.01,-000.46,18.1,24.8,00.2,00.2,0630.8,31.1
2021-02-19T15:48:00Z,00000200,01000000,0000.33,-000.07,0000.30,0000.01,-000.01,-000.00,-000.06,-000.10,0000.12,18.1,24.8,00.2,00.2,0630.8,31.1
2021-02-19T15:49:00Z,00000200,01000000,0000.31,0000.13,0000.11,-000.10,-000.04,0000.16,0000.02,0000.05,0000.05,18.1,24.8,00.1,00.1,0630.9,31.1
2021-02-19T15:50:00Z,00000200,01000000,0000.28,-000.18,0000.12,-000.08,0000.12,0000.05,-000.05,0000.09,-000.33,18.1,24.8,00.2,00.1,0630.9,31.1
2021-02-19T15:51:00Z,00000200,01000000,0000.01,0000.04,0000.09,-000.64,0000.04,0000.02,0000.18,0000.20,0000.53,18.1,24.8,00.2,00.1,0630.9,31.1
2021-02-19T15:52:00Z,00000200,01000000,0000.33,-000.09,-000.07,-000.12,-000.10,-000.08,-000.41,-000.08,-000.01,18.1,24.8,00.1,00.1,0630.9,31.1
2021-02-19T15:53:00Z,00000200,01000000,-000.33,0000.19,-000.10,-000.11,0000.04,0000.04,0000.50,-000.34,-000.01,18.1,24.8,00.2,00.1,0630.9,31.1
2021-02-19T15:54:00Z,00000200,41000000,0000.17,-000.13,0000.05,-000.08,0000.03,-000.14,0000.15,0000.77,0000.41,18.1,24.8,00.1,00.1,0630.9,31.1
2021-02-19T15:55:00Z,00000200,41000000,,,,,,,0000.13,0000.06,-000.00,18.0,24.8,00.0,00.0,0630.8,31.1
2021-02-19T15:56:00Z,00000200,01000000,,,,,,,-000.08,-000.16,-000.02,17.9,25.0,00.2,00.1,0630.1,31.1
2021-02-19T15:57:00Z,00000200,01000000,,,,,,,-000.75,-000.58,-000.77,17.9,25.0,00.1,00.1,0630.1,31.1
2021-02-19T15:57:45Z,00000200,01000000,,,,,,,-000.75,-000.58,-000.77,17.9,25.0,00.1,00.1,0630.1,31.1
2021-02-19T15:57:45Z,00000200,01000000,,,,,,,-000.75,-000.58,-000.77,,,,,,31.1
2021-02-19T15:57:45Z,,01000000,,,,,,,,,,,,,,,
2021-02-19T15:57:46Z,00000200,01000000,,,,,,,,,,,,,,,
2021-02-19T15:58:00Z,00000200,01000000,,,,,,,,,,,,,,,
2021-02-19T15:59:00Z,00000200,01000000,,,,,,,,,,,,,,,
